Regional Weather Roundup
Issued by NWS

Home | Current Version | Previous Version | Graphics & Text | Print | Product List | Glossary On
Versions: 1 2 3 4 5 6 7 8 9 10 11 12 13 14 15 16 17 18 19 20 21 22 23 24 25 26 27
000
ASUS45 KPSR 270410
RWRAZ

ARIZONA HOURLY REGIONAL WEATHER ROUNDUP
NATIONAL WEATHER SERVICE PHOENIX AZ
900 PM MST TUE JUL 26 2016

NOTE: FAIR INDICATES FEW OR NO CLOUDS BELOW 12,000 FEET WITH NO
SIGNIFICANT WEATHER AND/OR OBSTRUCTIONS TO VISIBILITY.

AZZ001>003-036-270500-
NORTHWEST ARIZONA

CITY           SKY/WX    TMP DP  RH WIND       PRES   REMARKS
BULLHEAD CITY  CLEAR    108  52  15 SW5       29.68R HX 105
KINGMAN        PTCLDY    93  48  21 S8        29.96R
$$

AZZ004>008-015-016-018-270500-
NORTH CENTRAL ARIZONA

CITY           SKY/WX    TMP DP  RH WIND       PRES   REMARKS
GRAND CANYON   PTCLDY    65  43  44 CALM      30.27R
WILLIAMS       PTCLDY    70  55  60 CALM      30.36R
PRESCOTT       MOCLDY    79  55  43 S6        30.13R
FLAGSTAFF      MOCLDY    64  57  78 CALM      30.30R
PAYSON         PTCLDY    81  50  34 NE6       30.16R
PAGE           CLEAR     90  40  17 SW7       30.02R
$$

AZZ009>014-017-270500-
NORTHEAST ARIZONA

CITY           SKY/WX    TMP DP  RH WIND       PRES   REMARKS
WINSLOW        MOCLDY    78  47  33 W7        30.11R
SAINT JOHNS    PTCLDY    73  57  57 S8        30.17R
WINDOW ROCK    CLOUDY    77  52  41 N6        30.26R
SHOW LOW       PTCLDY    68  50  52 CALM      30.26R HAZE
$$

AZZ023-270500-
GREATER PHOENIX AREA

CITY           SKY/WX    TMP DP  RH WIND       PRES   REMARKS
PHOENIX        PTCLDY   105  58  21 SW8       29.73R HX 105
BUCKEYE        CLEAR    100  54  20 W3        29.75R
LUKE AFB       CLEAR    103  58  21 W6        29.73R HX 103
DEER VALLEY    CLEAR    104  54  19 W8        29.76R HX 102
SCOTTSDALE     CLEAR    104  56  20 W6        29.78R HX 103
MESA-GATEWAY   PTCLDY   102  57  22 W6        29.78R HX 101
CHANDLER       PTCLDY   102  57  22 SW8       29.76R HX 101
$$

AZZ027-028-270500-
SOUTHWEST MARICOPA COUNTY AND PINAL COUNTY

CITY           SKY/WX    TMP DP  RH WIND       PRES   REMARKS
CASA GRANDE    PTCLDY   100  55  22 W3        29.81R
GILA BEND      PTCLDY   104  56  20 W10       29.73R HX 103
$$

AZZ503-504-507>509-270500-
SOUTHEAST ARIZONA

CITY           SKY/WX    TMP DP  RH WIND       PRES   REMARKS
TUCSON         CLOUDY    88  61  40 E23G30    30.00R
DAVIS-MONTHAN  TSTM      75  66  73 NE23G32   29.99R
NOGALES        CLOUDY    77  64  64 CALM      30.06R
SIERRA VISTA   CLOUDY    79  55  43 W17       30.11R
DOUGLAS        CLOUDY    80  68  66 S8        30.05R
SAFFORD        MOCLDY    93  53  25 W8        29.93R
$$

AZZ020-021-025-026-031-270500-
SOUTHWEST ARIZONA

CITY           SKY/WX    TMP DP  RH WIND       PRES   REMARKS
YUMA           PTCLDY    96  66  37 S9        29.72R
$$

CAZ031-033-041-043-047-048-061-270500-
SOUTHERN CALIFORNIA

CITY           SKY/WX    TMP DP  RH WIND       PRES   REMARKS
DOWNTOWN L.A.  CLEAR     72  64  76 CALM      29.86R
L.A. AIRPORT   PTCLDY    71  65  81 W8        29.87R
SAN DIEGO      PTCLDY    71  65  81 W7        29.88R
BURBANK        CLEAR     79  56  45 E9        29.86R
ONTARIO        CLEAR     82  52  35 W7        29.89R
RIVERSIDE      CLEAR     85  50  29 NW7       29.88R
PALM SPRINGS   CLEAR    103  54  19 NW14G24   29.73R HX 101
EL CENTRO NAS  PTCLDY   102  54  20 S13       29.71R HX 100
IMPERIAL       CLEAR    104  62  25 SW10      29.68R HX 106
BLYTHE         CLEAR    107  55  18 SW12      29.70R HX 106
NEEDLES        MOCLDY   110  51  14 W9        29.71R HX 107
$$

NVZ020-UTZ003-270500-
SOUTHERN NEVADA-UTAH

CITY           SKY/WX    TMP DP  RH WIND       PRES   REMARKS
LAS VEGAS      PTCLDY   105  41  11 SW5       29.76R HX 100
SALT LAKE CITY CLEAR     87  31  13 S8        29.98R
$$

NMZ009-TXZ055-270500-
NEW MEXICO-WEST TEXAS

CITY           SKY/WX    TMP DP  RH WIND       PRES   REMARKS
ALBUQUERQUE    CLOUDY    78  56  46 SE13      30.18R
EL PASO        PTCLDY    83  57  41 SE8       30.04R
$$


........................KEY........................
SKY/WX - SKY CONDITION/WEATHER
TMP    - TEMPERATURE IN FAHRENHEIT
DP     - DEW POINT IN FAHRENHEIT
RH     - RELATIVE HUMIDITY IN PERCENT
WIND   - DIRECTION AND SPEED IN MILES PER HOUR (MPH)
VRB    - VARIABLE WIND DIRECTION
PRES   - MEAN SEA LEVEL PRESSURE IN INCHES OF MERCURY
         F - FALLING PRESSURE   R - RISING PRESSURE
         S - STEADY PRESSURE
VSB    - VISIBILITY IN MILES
HX     - HEAT INDEX IN FAHRENHEIT
WCI    - WIND CHILL INDEX IN FAHRENHEIT
TC     - TEMPERATURE IN CELSIUS WHICH IS ALSO KNOWN AS
         TEMPERATURE IN CENTIGRADE
AFB    - AIR FORCE BASE
         LUKE AFB IS LUKE AIR FORCE BASE
         DAVIS-MONTHAN IS DAVIS-MONTHAN AIR FORCE BASE
NAS    - NAVAL AIR STATION
         EL CENTRO NAS IS EL CENTRO NAVAL AIR STATION
N/A    - NOT AVAILABLE





USA.gov is the U.S. government's official web portal to all federal, state and local government web resources and services.